Regional Weather Roundup
Issued by NWS Upton, NY

Current Version | Previous Version | Graphics & Text | Print | Product List | Glossary Off
Versions: 1 2 3 4 5 6 7 8 9 10 11 12 13 14 15 16 17 18 19 20 21 22 23 24 25 26 27 28 29 30 31 32 33 34 35 36 37 38 39 40 41 42 43 44 45 46 47 48 49 50

000
ASUS41 KOKX 231105
RWROKX

REGIONAL WEATHER ROUNDUP
NATIONAL WEATHER SERVICE NEW YORK NY
700 AM EDT SAT JUL 23 2016

NOTE: "FAIR" INDICATES FEW OR NO CLOUDS BELOW 12,000 FEET WITH NO
SIGNIFICANT WEATHER AND/OR OBSTRUCTIONS TO VISIBILITY.

NYZ071-072-176-178-NJZ106-104-231200-
NEW YORK CITY METRO AREA

CITY           SKY/WX    TMP DP  RH WIND       PRES   REMARKS
Central Park   SUNNY     81  63  54 W6        29.88S
LaGuardia APRT MOSUNNY   84  64  50 NW13      29.85R
Kennedy INTL   MOSUNNY   84  62  47 W13       29.86R
Newark/Liberty MOSUNNY   81  64  56 W9        29.86R
BRNX BOT. GARD   N/A     81  63  54 W9        29.88R
Wall St Helipt SUNNY     82  64  54 W6        29.86S
Teterboro      SUNNY     81  63  54 W3        29.85R
$$

NYZ177-179-078>081-231200-
LONG ISLAND NEW YORK

CITY           SKY/WX    TMP DP  RH WIND       PRES   REMARKS
FARMINGDALE    SUNNY     81  64  56 W9        29.85R
ISLIP          SUNNY     81  65  58 W13       29.83R
SHIRLEY        SUNNY     80  66  62 MISG      29.83R
RIVERHEAD      NOT AVBL
WESTHAMPTON    SUNNY     79  66  64 NW7       29.83R
SOUTHAMPTON      N/A     79  70  73 NW7       29.77S
BRIDGEHAMPTON    N/A     77  70  78 CALM      29.80S
EAST HAMPTON   FAIR      79  68  69 NW5       29.80S
MONTAUK POINT    N/A     78  70  76 W7        29.81R
$$

NYZ052-065-067-231200-
HUDSON VALLEY

CITY           SKY/WX    TMP DP  RH WIND       PRES   REMARKS
WHITE PLAINS   SUNNY     79  64  60 W5        29.86R
NEWBURGH       SUNNY     72  66  83 W7        29.88R
MONTGOMERY     SUNNY     70  66  87 SW5       29.86S
POUGHKEEPSIE   SUNNY     76  66  71 SW7       29.84R
ALBANY         MOSUNNY   74  61  63 W16       29.82R
$$

NJZ001-105-106-008-010-013-015-019>022-104-231200-
NEW JERSEY

CITY           SKY/WX    TMP DP  RH WIND       PRES   REMARKS
NEWARK/LIBERTY MOSUNNY   81  64  56 W9        29.86R
TETERBORO      SUNNY     81  63  54 W3        29.85R
CALDWELL       SUNNY     76  66  71 CALM      29.87R
MORRISTOWN     MOSUNNY   72  66  83 CALM      29.88R
SOMERVILLE     SUNNY     71  68  90 CALM      29.87R
SUSSEX         SUNNY     69  66  90 CALM      29.88S
ANDOVER          N/A     67  66  97 CALM      29.90S
TRENTON        SUNNY     76  68  76 NW6       29.89R
MILLVILLE      SUNNY     76  72  87 W5        29.91R
ATLANTIC CITY  SUNNY     78  70  76 W7        29.90R
WRIGHTSTOWN    SUNNY     76  71  85 SW6       29.87R
TOMS RIVER     MOSUNNY   76  71  85 W5        29.89S
BELMAR         SUNNY     76  70  82 W5        29.89R
$$

PAZ047>061-062-071-231200-
EASTERN PENNSYLVANIA

CITY           SKY/WX    TMP DP  RH WIND       PRES   REMARKS
PHILADELPHIA   MOSUNNY   80  69  69 W9        29.90S
ALLENTOWN      MOSUNNY   74  68  81 W3        29.91R
SCRANTON       SUNNY     71  64  78 CALM      29.92S
$$

CTZ002-004>006-009-010-012-RIZ004-006-007-MAZ004-011-015-231200-
SOUTHERN NEW ENGLAND
 IN CT

CITY           SKY/WX    TMP DP  RH WIND       PRES   REMARKS
BRADLEY INTL   SUNNY     77  65  66 W12       29.79R
HARTFORD       SUNNY     81  67  62 W7        29.80R
DANBURY        SUNNY     73  66  78 W5        29.86R
WTRBRY/OXFORD  SUNNY     72  64  78 NW5       29.86R
BRIDGEPORT     SUNNY     80  65  59 W12       29.82R
MERIDEN        SUNNY     75  69  81 N3        29.82R
NEW HAVEN      SUNNY     78  67  68 NW7       29.81R
CHESTER        FAIR      79  66  65 VRB6G15   29.82R
GROTON         SUNNY     77  71  82 W5        29.79R
WILLIMANTIC    NOT AVBL

 IN RI

CITY           SKY/WX    TMP DP  RH WIND       PRES   REMARKS
PROVIDENCE     SUNNY     74  70  87 W7        29.78R
BLOCK ISLAND   SUNNY     73  70  90 W10       29.80R
WESTERLY       SUNNY     75  69  81 CALM      29.79S HAZE

 IN MA

CITY           SKY/WX    TMP DP  RH WIND       PRES   REMARKS
BOSTON         SUNNY     77  68  73 SW6       29.75S
WORCESTER      SUNNY     72  64  76 W13       29.82R
WESTFIELD      SUNNY     78  63  59 NW9       29.80R
PROVINCETOWN   SUNNY     71  69  93 SW12      29.77R
NANTUCKET      CLOUDY    70  68  93 S10       29.78F
$$

ANZ330-335-338-340-345-350-353-355-231200-
COASTAL MARINE OBSERVATIONS


STATION/POSITION TIME  SKY/WX   TEMP    WIND        PRES    VSBY  WAVE
                                AIR SEA DIR/SP/G                  HT/PER
                 (UTC)          (F)     (DEG/KT/KT) (MB)    (MI)  (FT/S)
NY HARB ENTRANCE 0950            74 72  260/  8/ 10 1010.2          3/ 6
20S FIRE ISLAND  0950            76 73  280/ 12/ 14 1009.8          5/ 6
GREAT SOUTH BAY  1000            80 79  270/  8/ 10   N/A
23 SSW MONTAUK P 0950            72 70  250/ 10/ 12 1009.4          5/ 7
15 E BARNEGAT LI 1022               74                N/A           3/ 5
HUDSON CANYON    0950            78 76              1010.3          5/ 6
KINGS POINT      1000            79 72              1010.3
EXECUTION ROCKS  1000            77     280/  8/ 10   N/A
CENTRAL LI SOUND 1000            76 71  260/ 12/ 16   N/A           1/ 3
EASTERN LI SOUND 1000            71 67  260/ 10/ 14   N/A
ROBBINS REEF     1000            82     300/ 12/ 13 1010.1
$$


>>>>>>>>>>>>>>>>>>>>>>>>>>>> KEY <<<<<<<<<<<<<<<<<<<<<<<<<<<
>                                                          <
>     SKY/WX - SKY CONDITION/PRESENT WEATHER               <
>     TMP    - TEMPERATURE IN FAHRENHEIT                   <
>     DP     - DEWPOINT IN FAHRENHEIT                      <
>     RH     - RELATIVE HUMIDITY IN PERCENT                <
>     WIND   - DIRECTION AND SPEED IN MPH                  <
>     PRES   - MEAN SEA LEVEL PRESSURE IN INCHES OF HG     <
>     WCI    - WIND CHILL INDEX                            <
>     VSB    - VISIBILITY IN MILES                         <
>     HX     - HEAT INDEX                                  <
>     TC     - TEMPERATURE IN CELSIUS                      <
>     VRB    - VARIABLE WIND DIRECTION                     <
>                                                          <
>>>>>>>>>>>>>>>>>>>>>>>>>>>> KEY <<<<<<<<<<<<<<<<<<<<<<<<<<<





USA.gov is the U.S. government's official web portal to all federal, state and local government web resources and services.